User: anonymous   Login
Location: Unspecified
(0.0000°N, 0.0000°E)
Time: 07:44:15
(UTC+00:00)
Language:

STARLINK-30799 - Orbit

View from above orbital plane
View from above orbital plane
View from above satellite
View from above satellite

Ground track
Ground track

The orbit is defined by the following mean orbital elements,

1 58121U          26145.48749832 +.00000000 +00000-0 +19650-3 0 00007
2 58121  43.0055  58.6556 0001052 269.7028  90.3704 15.27563260    03
Epoch (UTC): 25 May 2026 11:41:59
Eccentricity: 0.0001052
inclination: 43.0055°
perigee height: 482 km
apogee height: 484 km
right ascension of ascending node: 58.6556°
argument of perigee: 269.7028°
revolutions per day: 15.27563260
mean anomaly at epoch: 90.3704°

The dashed part of the orbit path shows where the satellite is in the earth's shadow,  

DLR